Regional Weather Roundup
Issued by NWS

Home | Current Version | Previous Version | Graphics & Text | Print | Product List | Glossary On
Versions: 1 2 3 4 5 6 7 8 9 10 11 12 13 14 15 16 17 18 19 20 21 22 23 24 25 26 27 28 29 30 31 32 33 34 35 36 37 38 39 40 41 42 43 44 45 46 47 48 49 50
000
ASUS43 KIND 230759
RWRIN

WEATHER ROUNDUP FOR INDIANA
NATIONAL WEATHER SERVICE INDIANAPOLIS IN
400 AM EDT SAT MAY 23 2015

NOTE: "FAIR" INDICATES FEW OR NO CLOUDS BELOW 12,000 FEET WITH NO
SIGNIFICANT WEATHER AND/OR OBSTRUCTIONS TO VISIBILITY.

* - STATION DOES NOT REPORT WEATHER SUCH AS PRECIPITATION OR FOG.

+ - STATION NOT QUALITY CONTROLLED BY THE NATIONAL WEATHER SERVICE.
    USE DATA WITH CAUTION...ESPECIALLY DEWPOINT AND RELATIVE
    HUMIDITY OBSERVATIONS.

INZ001>003-010>013-019-020-230900-
NORTHWEST INDIANA

CITY           SKY/WX    TMP DP  RH WIND       PRES   REMARKS
RENSSELAER +   CLOUDY    54  37  54 E6        30.30S

$$

LMZ046-743>745-230900-
SOUTHERN LAKE MICHIGAN

STATION/POSITION TIME  TEMP    WIND        PRES    WAVE
                       AIR SEA DIR/SP/G            HT
                 (UTC) (F)     (DEG/KT/KT) (MB)    (FT)
BURNS HARBOR     0700   60     130/  8/ 15 1026.4S
MICHIGAN CITY    0700   54     120/  9/ 10   N/A
5NW MICH CITY    0700   53 51  130/  2/  4   N/A     1

$$

INZ004-005-014>016-021>024-230900-
NORTH CENTRAL INDIANA

CITY           SKY/WX    TMP DP  RH WIND       PRES   REMARKS
GOSHEN         CLEAR     43  37  79 CALM      30.32S
SOUTH BEND     CLEAR     47  37  68 CALM      30.33R
WARSAW +       CLEAR     45  37  76 CALM      30.32R

$$

INZ006>009-017-018-025>027-230900-
NORTHEAST INDIANA

CITY           SKY/WX    TMP DP  RH WIND       PRES   REMARKS
ANGOLA *+      CLEAR     43  37  81 CALM      30.32R
FORT WAYNE     PTCLDY    47  39  74 CALM      30.33R

$$

INZ028-029-035-036-043>045-051>053-230900-
WEST CENTRAL INDIANA

CITY           SKY/WX    TMP DP  RH WIND       PRES   REMARKS
CRAWFORDSVL +  CLOUDY    56  33  41 E7        30.29R
GREENCASTLE +  CLOUDY    55  41  58 CALM      30.29S
LAFAYETTE      CLOUDY    55  39  54 E9        30.29S
TERRE HAUTE    CLOUDY    59  53  80 S6        30.26F

$$

INZ030>032-037>040-046>048-054>057-064-065-230900-
CENTRAL INDIANA

CITY           SKY/WX    TMP DP  RH WIND       PRES   REMARKS
INDIANAPOLIS   CLOUDY    59  42  53 NE8       30.28R
-EAGLE CREEK   CLOUDY    59  40  49 E5        30.30R
KOKOMO *+      PTCLDY    52  39  62 E3        30.32R
MT COMFORT *+  MOCLDY    52  39  62 NE7       30.31R
SHELBYVILLE    MOCLDY    59  44  57 NE7       30.29R

$$

INZ033-034-041-042-049-050-058-059-230900-
EAST CENTRAL INDIANA

CITY           SKY/WX    TMP DP  RH WIND       PRES   REMARKS
MUNCIE         PTCLDY    51  40  65 E5        30.31S

$$

INZ060-061-067>069-081>083-085>088-230900-
SOUTHWEST INDIANA

CITY           SKY/WX    TMP DP  RH WIND       PRES   REMARKS
EVANSVILLE     MOCLDY    59  55  87 CALM      30.28R
HUNTINGBURG *+ MOCLDY    55  50  82 CALM      30.29R

$$

INZ062-063-066-070>080-084-089>092-230900-
SOUTH CENTRAL AND SOUTHEAST INDIANA

CITY           SKY/WX    TMP DP  RH WIND       PRES   REMARKS
BLOOMINGTON    MOCLDY    55  51  86 CALM      30.29R
MADISON *+     MOCLDY    52  48  87 CALM      30.31R
SEYMOUR +      MOCLDY    55  52  88 CALM      30.29R

$$



USA.gov is the U.S. government's official web portal to all federal, state and local government web resources and services.